Location: Newark
(47.5833°N, 8.1500°E)
Time: 06:34:41
(UTC+00:00)

Tiros 1 despin weight - Pass Details

Date: 29 October 2020
Orbit: 593 x 642 km, 48.2° (Epoch: 30 November)

Event Time Altitude Azimuth Distance (km) Brightness Sun altitude
Exits shadow 03:54:20 71° 204° (SSW) 628 ? -22.9°
Maximum altitude 03:54:23 72° 198° (SSW) 628 ? -22.9°
Drops below altitude 10° 03:58:45 10° 115° (ESE) 1,921 ? -22.2°
Sets 04:01:02 0° 113° (ESE) 2,822 ? -21.8°
